Location: Clair
(33.8067°N, 117.9845°W)
Time: 17:20:20
(UTC+00:00)

Cosmos 1674 Rocket - Pass Details

Date: 14 February 2026
Orbit: 596 x 622 km, 82.5° (Epoch: 8 March)

Event Time Altitude Azimuth Distance (km) Brightness Sun altitude
Rises 13:02:30 0° 350° (N) 2,899 6.9 -20.2°
Reaches altitude 10° 13:04:45 10° 349° (NNW) 1,987 6.0 -19.8°
Maximum altitude 13:09:07 70° 265° (W) 655 3.4 -18.9°
Drops below altitude 10° 13:13:26 10° 182° (S) 1,959 6.1 -18.0°
Sets 13:15:38 0° 180° (S) 2,855 7.0 -17.5°
